| time (UTC) | temp F | wind direction | speed MPH | gust MPH | rain 1hr in | rain 24hr in | rain mn in | humidity % | barometer mb |
| 20260502221557 | 73 | 355 | 8.0 | 17.0 | 0.00 | 1.79 | 1.61 | 56 | 1012.3 |
| 20260502221048 | 73 | 22 | 11.0 | 17.0 | 0.00 | 1.79 | 1.61 | 56 | 1012.3 |
| 20260502220548 | 73 | 54 | 5.0 | 17.0 | 0.00 | 1.79 | 1.61 | 58 | 1012.2 |
| 20260502220101 | 72 | 350 | 10.0 | 17.0 | 0.00 | 1.79 | 1.61 | 56 | 1012.1 |
| 20260502215548 | 73 | 341 | 10.0 | 18.0 | 0.00 | 1.95 | 1.61 | 59 | 1012.1 |
| 20260502215047 | 72 | 360 | 10.0 | 19.0 | 0.00 | 1.95 | 1.61 | 57 | 1012.0 |
| 20260502214611 | 72 | 11 | 10.0 | 19.0 | 0.00 | 1.95 | 1.61 | 57 | 1012.1 |
| 20260502214049 | 72 | 355 | 7.0 | 17.0 | 0.00 | 1.95 | 1.61 | 57 | 1012.0 |
| 20260502213550 | 72 | 326 | 9.0 | 18.0 | 0.00 | 1.95 | 1.61 | 58 | 1012.1 |
| 20260502213115 | 72 | 29 | 8.0 | 18.0 | 0.00 | 1.95 | 1.61 | 58 | 1011.9 |
| 20260502212548 | 71 | 37 | 10.0 | 16.0 | 0.00 | 1.95 | 1.61 | 61 | 1011.8 |
| 20260502212042 | 70 | 329 | 8.0 | 21.0 | 0.00 | 1.95 | 1.61 | 64 | 1011.9 |
| 20260502211553 | 70 | 350 | 12.0 | 21.0 | 0.00 | 1.95 | 1.61 | 61 | 1011.9 |
| 20260502211044 | 71 | 17 | 9.0 | 21.0 | 0.00 | 1.95 | 1.61 | 61 | 1011.9 |
| 20260502210542 | 71 | 48 | 11.0 | 20.0 | 0.00 | 1.95 | 1.61 | 60 | 1012.0 |
| 20260502210049 | 71 | 22 | 10.0 | 18.0 | 0.00 | 1.95 | 1.61 | 62 | 1011.9 |
| 20260502205542 | 71 | 49 | 8.0 | 15.0 | 0.00 | 2.13 | 1.61 | 66 | 1012.0 |
| 20260502205042 | 70 | 50 | 8.0 | 18.0 | 0.00 | 2.13 | 1.61 | 67 | 1011.9 |
| 20260502204549 | 69 | 12 | 7.0 | 18.0 | 0.00 | 2.13 | 1.61 | 68 | 1012.1 |
| 20260502204044 | 68 | 355 | 10.0 | 18.0 | 0.00 | 2.13 | 1.61 | 67 | 1012.2 |
| 20260502203542 | 68 | 360 | 6.0 | 18.0 | 0.00 | 2.13 | 1.61 | 69 | 1012.2 |
| 20260502203110 | 67 | 5 | 11.0 | 19.0 | 0.00 | 2.13 | 1.61 | 69 | 1012.2 |
| 20260502202546 | 68 | 44 | 11.0 | 19.0 | 0.00 | 2.13 | 1.61 | 68 | 1012.2 |
| 20260502202044 | 68 | 355 | 12.0 | 19.0 | 0.00 | 2.13 | 1.61 | 68 | 1012.3 |
| 20260502201546 | 68 | 324 | 11.0 | 19.0 | 0.00 | 2.13 | 1.61 | 69 | 1012.1 |
| 20260502201045 | 68 | 352 | 11.0 | 18.0 | 0.00 | 2.13 | 1.61 | 68 | 1012.1 |
| 20260502200543 | 68 | 360 | 9.0 | 16.0 | 0.00 | 2.13 | 1.61 | 68 | 1012.0 |
| 20260502200055 | 68 | 5 | 10.0 | 17.0 | 0.00 | 2.13 | 1.61 | 69 | 1012.1 |
| 20260502195541 | 68 | 20 | 10.0 | 18.0 | 0.00 | 2.25 | 1.61 | 69 | 1012.2 |
| 20260502195045 | 68 | 18 | 9.0 | 18.0 | 0.00 | 2.25 | 1.61 | 70 | 1012.2 |
| 20260502194550 | 69 | 27 | 9.0 | 16.0 | 0.00 | 2.25 | 1.61 | 69 | 1012.3 |
| 20260502194042 | 69 | 28 | 7.0 | 16.0 | 0.00 | 2.25 | 1.61 | 70 | 1012.2 |
| 20260502193545 | 69 | 24 | 8.0 | 16.0 | 0.00 | 2.25 | 1.61 | 69 | 1012.2 |
| 20260502193047 | 70 | 355 | 10.0 | 17.0 | 0.00 | 2.25 | 1.61 | 68 | 1012.3 |
| 20260502192545 | 69 | 336 | 10.0 | 17.0 | 0.00 | 2.25 | 1.61 | 71 | 1012.4 |
| 20260502192045 | 69 | 14 | 12.0 | 17.0 | 0.00 | 2.25 | 1.61 | 70 | 1012.4 |
| 20260502191549 | 69 | 36 | 7.0 | 16.0 | 0.00 | 2.25 | 1.61 | 71 | 1012.5 |
| 20260502191042 | 70 | 24 | 8.0 | 16.0 | 0.00 | 2.25 | 1.61 | 70 | 1012.7 |
| 20260502190546 | 70 | 342 | 9.0 | 14.0 | 0.00 | 2.25 | 1.61 | 71 | 1012.9 |
| 20260502190046 | 70 | 20 | 6.0 | 14.0 | 0.00 | 2.25 | 1.61 | 71 | 1012.6 |
| 20260502185542 | 69 | 42 | 7.0 | 14.0 | 0.00 | 2.25 | 1.61 | 71 | 1012.7 |
| 20260502185045 | 68 | 47 | 7.0 | 14.0 | 0.00 | 2.25 | 1.61 | 73 | 1012.5 |
| 20260502184545 | 68 | 62 | 6.0 | 13.0 | 0.00 | 2.25 | 1.61 | 74 | 1012.6 |
| 20260502184042 | 68 | 45 | 7.0 | 15.0 | 0.00 | 2.25 | 1.61 | 73 | 1012.7 |
| 20260502183542 | 68 | 11 | 9.0 | 15.0 | 0.00 | 2.25 | 1.61 | 74 | 1012.6 |
| 20260502183057 | 67 | 360 | 9.0 | 17.0 | 0.00 | 2.25 | 1.61 | 75 | 1012.5 |
| 20260502182543 | 66 | 51 | 9.0 | 17.0 | 0.00 | 2.25 | 1.61 | 76 | 1012.6 |
| 20260502182045 | 65 | 14 | 9.0 | 16.0 | 0.00 | 2.25 | 1.61 | 76 | 1012.6 |
| 20260502181549 | 65 | 5 | 10.0 | 16.0 | 0.00 | 2.25 | 1.61 | 76 | 1012.9 |
| 20260502181045 | 65 | 347 | 9.0 | 15.0 | 0.00 | 2.25 | 1.61 | 76 | 1012.9 |
| 20260502180548 | 65 | 15 | 10.0 | 20.0 | 0.00 | 2.25 | 1.61 | 78 | 1013.1 |
| 20260502164048 | 60 | 15 | 11.0 | 20.0 | 0.00 | 2.25 | 1.61 | 84 | 1012.9 |
| 20260502163546 | 61 | 30 | 10.0 | 19.0 | 0.00 | 2.25 | 1.61 | 84 | 1012.4 |
| 20260502163111 | 62 | 18 | 8.0 | 18.0 | 0.00 | 2.25 | 1.61 | 85 | 1012.4 |
| 20260502162545 | 61 | 5 | 7.0 | 18.0 | 0.00 | 2.25 | 1.61 | 86 | 1012.5 |
| 20260502162048 | 61 | 5 | 9.0 | 19.0 | 0.00 | 2.25 | 1.61 | 86 | 1012.5 |
| 20260502161619 | 60 | 9 | 10.0 | 19.0 | 0.00 | 2.25 | 1.61 | 90 | 1012.5 |
| 20260502161045 | 60 | 360 | 11.0 | 19.0 | 0.00 | 2.25 | 1.61 | 88 | 1012.6 |
| 20260502160548 | 59 | 5 | 11.0 | 19.0 | 0.00 | 2.25 | 1.61 | 89 | 1012.4 |
| 20260502152047 | 57 | 5 | 10.0 | 17.0 | 0.00 | 2.25 | 1.61 | 91 | 1012.5 |
| 20260502151555 | 57 | 31 | 8.0 | 17.0 | 0.00 | 2.25 | 1.61 | 91 | 1012.6 |
| 20260502151045 | 57 | 25 | 9.0 | 17.0 | 0.00 | 2.25 | 1.61 | 91 | 1012.5 |
| 20260502150556 | 57 | 5 | 7.0 | 16.0 | 0.00 | 2.25 | 1.61 | 91 | 1012.3 |
| 20260502130547 | 57 | 48 | 8.0 | 14.0 | 0.04 | 2.16 | 1.52 | 91 | 1011.8 |
| 20260502123544 | 57 | 48 | 6.0 | 13.0 | 0.03 | 2.15 | 1.51 | 91 | 1011.3 |
| 20260502123113 | 57 | 15 | 5.0 | 15.0 | 0.01 | 2.13 | 1.49 | 91 | 1011.7 |
| 20260502122545 | 57 | 16 | 8.0 | 15.0 | 0.01 | 2.13 | 1.49 | 91 | 1011.0 |
| 20260502122050 | 57 | 21 | 9.0 | 14.0 | 0.01 | 2.13 | 1.49 | 91 | 1010.8 |
| 20260502121556 | 58 | 360 | 6.0 | 12.0 | 0.02 | 2.13 | 1.49 | 91 | 1010.9 |
| 20260502121047 | 58 | 42 | 6.0 | 15.0 | 0.02 | 2.13 | 1.49 | 91 | 1010.8 |
| 20260502120546 | 58 | 5 | 7.0 | 15.0 | 0.01 | 2.11 | 1.48 | 91 | 1010.7 |
| 20260502120110 | 58 | 51 | 6.0 | 12.0 | 0.01 | 2.11 | 1.48 | 91 | 1011.0 |
| 20260502115545 | 58 | 355 | 7.0 | 13.0 | 0.01 | 2.11 | 1.48 | 91 | 1011.5 |
| 20260502115045 | 58 | 328 | 5.0 | 14.0 | 0.01 | 2.11 | 1.48 | 91 | 1011.5 |
| 20260502114548 | 58 | 306 | 7.0 | 17.0 | 0.01 | 2.11 | 1.48 | 91 | 1012.1 |
| 20260502114048 | 58 | 5 | 9.0 | 18.0 | 0.01 | 2.11 | 1.48 | 91 | 1011.0 |
| 20260502113548 | 58 | 5 | 9.0 | 18.0 | 0.01 | 2.11 | 1.48 | 91 | 1010.6 |
| 20260502113052 | 58 | 348 | 8.0 | 17.0 | 0.01 | 2.11 | 1.48 | 91 | 1010.7 |
| 20260502112548 | 58 | 5 | 10.0 | 17.0 | 0.01 | 2.11 | 1.48 | 91 | 1010.8 |
| 20260502112045 | 59 | 360 | 7.0 | 14.0 | 0.02 | 2.11 | 1.48 | 91 | 1011.0 |
| 20260502111549 | 59 | 36 | 7.0 | 14.0 | 0.11 | 2.10 | 1.47 | 91 | 1010.7 |
| 20260502111045 | 59 | 329 | 6.0 | 13.0 | 0.23 | 2.10 | 1.47 | 91 | 1011.2 |
| 20260502110545 | 59 | 15 | 8.0 | 13.0 | 0.29 | 2.10 | 1.47 | 91 | 1010.9 |
| 20260502110052 | 59 | 13 | 7.0 | 13.0 | 0.36 | 2.10 | 1.47 | 91 | 1010.6 |
| 20260502105546 | 58 | 40 | 8.0 | 13.0 | 0.42 | 2.10 | 1.47 | 91 | 1010.1 |
| 20260502105045 | 58 | 32 | 6.0 | 13.0 | 0.47 | 2.10 | 1.47 | 91 | 1009.9 |
| 20260502104554 | 58 | 13 | 6.0 | 13.0 | 0.51 | 2.10 | 1.47 | 91 | 1009.9 |
| 20260502104045 | 58 | 5 | 7.0 | 13.0 | 0.63 | 2.10 | 1.47 | 91 | 1010.2 |
| 20260502103547 | 58 | 23 | 5.0 | 14.0 | 0.74 | 2.10 | 1.47 | 91 | 1010.1 |
| 20260502103049 | 58 | 5 | 6.0 | 14.0 | 0.82 | 2.10 | 1.47 | 91 | 1009.8 |
| 20260502102545 | 58 | 35 | 7.0 | 14.0 | 0.85 | 2.10 | 1.47 | 91 | 1009.2 |
| 20260502102044 | 58 | 5 | 6.0 | 13.0 | 0.87 | 2.09 | 1.46 | 91 | 1010.4 |
| 20260502101550 | 58 | 36 | 6.0 | 16.0 | 0.82 | 1.99 | 1.35 | 91 | 1009.7 |
| 20260502101045 | 58 | 346 | 6.0 | 19.0 | 0.73 | 1.88 | 1.24 | 91 | 1010.2 |
| 20260502100548 | 58 | 25 | 9.0 | 19.0 | 0.68 | 1.81 | 1.16 | 91 | 1009.0 |
| 20260502091045 | 58 | 33 | 9.0 | 21.0 | 0.33 | 1.15 | 0.51 | 90 | 1008.5 |
| 20260502090545 | 58 | 66 | 9.0 | 21.0 | 0.31 | 1.13 | 0.49 | 90 | 1008.7 |
| 20260502080109 | 59 | 76 | 8.0 | 14.0 | 0.14 | 0.82 | 0.18 | 90 | 1009.6 |
| 20260502071048 | 59 | 69 | 4.0 | 13.0 | 0.02 | 0.69 | 0.05 | 90 | 1009.8 |
| 20260502070551 | 59 | 63 | 5.0 | 13.0 | 0.02 | 0.69 | 0.05 | 90 | 1009.9 |
| 20260502070106 | 59 | 55 | 6.0 | 13.0 | 0.01 | 0.68 | 0.04 | 90 | 1009.8 |
| 20260502065545 | 59 | 45 | 5.0 | 13.0 | 0.00 | 0.67 | 0.03 | 89 | 1010.0 |
| 20260502065045 | 59 | 57 | 5.0 | 16.0 | 0.00 | 0.67 | 0.03 | 90 | 1010.2 |
| 20260502064552 | 59 | 46 | 7.0 | 16.0 | 0.00 | 0.67 | 0.03 | 90 | 1010.5 |
| 20260502064045 | 59 | 69 | 6.0 | 15.0 | 0.00 | 0.67 | 0.03 | 90 | 1010.7 |
| 20260502063547 | 59 | 49 | 7.0 | 15.0 | 0.01 | 0.67 | 0.03 | 90 | 1010.6 |
| 20260502063051 | 59 | 38 | 6.0 | 13.0 | 0.01 | 0.67 | 0.03 | 90 | 1010.4 |
| 20260502062548 | 59 | 49 | 7.0 | 14.0 | 0.01 | 0.67 | 0.03 | 90 | 1010.2 |
| 20260502062048 | 59 | 41 | 6.0 | 14.0 | 0.02 | 0.67 | 0.03 | 90 | 1010.4 |
| 20260502061549 | 59 | 48 | 6.0 | 18.0 | 0.02 | 0.67 | 0.03 | 89 | 1010.4 |
| 20260502061049 | 59 | 61 | 8.0 | 18.0 | 0.02 | 0.67 | 0.03 | 89 | 1010.1 |
| 20260502060547 | 59 | 32 | 8.0 | 15.0 | 0.02 | 0.67 | 0.03 | 89 | 1010.0 |
| 20260502060054 | 59 | 50 | 5.0 | 14.0 | 0.03 | 0.67 | 0.03 | 89 | 1010.7 |
| 20260502055548 | 59 | 29 | 5.0 | 14.0 | 0.03 | 0.67 | 0.03 | 89 | 1010.8 |
| 20260502055048 | 59 | 50 | 6.0 | 15.0 | 0.03 | 0.67 | 0.03 | 89 | 1011.4 |
| 20260502054552 | 59 | 22 | 8.0 | 15.0 | 0.03 | 0.67 | 0.03 | 89 | 1011.3 |
| 20260502054048 | 59 | 36 | 6.0 | 14.0 | 0.03 | 0.67 | 0.03 | 89 | 1011.7 |
| 20260502053548 | 60 | 49 | 7.0 | 14.0 | 0.02 | 0.66 | 0.02 | 89 | 1010.9 |
| 20260502053057 | 60 | 65 | 7.0 | 15.0 | 0.02 | 0.66 | 0.02 | 89 | 1011.2 |
| 20260502052547 | 60 | 61 | 8.0 | 17.0 | 0.02 | 0.66 | 0.02 | 89 | 1012.2 |
| 20260502052049 | 60 | 19 | 10.0 | 17.0 | 0.01 | 0.65 | 0.01 | 89 | 1012.7 |
| 20260502051600 | 60 | 25 | 10.0 | 18.0 | 0.01 | 0.65 | 0.01 | 89 | 1012.6 |
| 20260502051047 | 60 | 54 | 8.0 | 18.0 | 0.01 | 0.65 | 0.01 | 89 | 1012.5 |
| 20260502050547 | 60 | 15 | 8.0 | 14.0 | 0.01 | 0.65 | 0.01 | 89 | 1012.7 |
| 20260502050049 | 61 | 49 | 6.0 | 15.0 | 0.00 | 0.64 | 0.00 | 89 | 1012.8 |
| 20260502045548 | 60 | 39 | 8.0 | 16.0 | 0.00 | 0.64 | 0.64 | 89 | 1012.7 |
| 20260502045048 | 61 | 360 | 9.0 | 16.0 | 0.00 | 0.64 | 0.64 | 89 | 1012.8 |
| 20260502044554 | 61 | 24 | 10.0 | 16.0 | 0.00 | 0.64 | 0.64 | 90 | 1012.7 |
| 20260502044047 | 61 | 20 | 9.0 | 19.0 | 0.00 | 0.64 | 0.64 | 90 | 1012.8 |
| 20260502043553 | 61 | 348 | 9.0 | 19.0 | 0.00 | 0.64 | 0.64 | 90 | 1012.8 |
| 20260502043056 | 61 | 350 | 8.0 | 14.0 | 0.00 | 0.64 | 0.64 | 90 | 1012.6 |
| 20260502042548 | 62 | 9 | 8.0 | 14.0 | 0.00 | 0.64 | 0.64 | 90 | 1012.8 |
| 20260502042052 | 62 | 5 | 7.0 | 11.0 | 0.00 | 0.64 | 0.64 | 90 | 1012.5 |
| 20260502041550 | 62 | 28 | 5.0 | 12.0 | 0.00 | 0.64 | 0.64 | 90 | 1012.4 |
| 20260502041052 | 62 | 32 | 7.0 | 13.0 | 0.00 | 0.64 | 0.64 | 90 | 1012.4 |
| 20260502040550 | 62 | 11 | 8.0 | 13.0 | 0.00 | 0.64 | 0.64 | 90 | 1012.3 |
| 20260502040048 | 62 | 46 | 7.0 | 12.0 | 0.00 | 0.64 | 0.64 | 90 | 1012.2 |
| 20260502035547 | 62 | 26 | 7.0 | 12.0 | 0.00 | 0.64 | 0.64 | 90 | 1012.0 |
| 20260502035047 | 62 | 26 | 6.0 | 10.0 | 0.00 | 0.64 | 0.64 | 90 | 1012.1 |
| 20260502034549 | 62 | 31 | 5.0 | 10.0 | 0.00 | 0.64 | 0.64 | 90 | 1011.9 |
| 20260502034048 | 62 | 44 | 5.0 | 11.0 | 0.00 | 0.64 | 0.64 | 90 | 1011.6 |
| 20260502033550 | 62 | 13 | 3.0 | 13.0 | 0.00 | 0.64 | 0.64 | 90 | 1011.7 |
| 20260502033051 | 62 | 80 | 6.0 | 13.0 | 0.00 | 0.64 | 0.64 | 90 | 1011.8 |
| 20260502032547 | 62 | 86 | 6.0 | 9.0 | 0.00 | 0.64 | 0.64 | 90 | 1011.8 |
| 20260502032047 | 62 | 0 | 3.0 | 9.0 | 0.00 | 0.64 | 0.64 | 90 | 1012.0 |
| 20260502031551 | 62 | 17 | 3.0 | 11.0 | 0.00 | 0.64 | 0.64 | 90 | 1012.0 |
| 20260502031047 | 62 | 19 | 4.0 | 11.0 | 0.00 | 0.64 | 0.64 | 90 | 1012.0 |
| 20260502030547 | 62 | 63 | 4.0 | 11.0 | 0.00 | 0.64 | 0.64 | 90 | 1011.7 |
| 20260502030051 | 62 | 48 | 6.0 | 11.0 | 0.00 | 0.64 | 0.64 | 90 | 1011.7 |
| 20260502025549 | 62 | 61 | 5.0 | 12.0 | 0.00 | 0.64 | 0.64 | 90 | 1011.5 |
| 20260502025048 | 62 | 52 | 3.0 | 12.0 | 0.00 | 0.64 | 0.64 | 90 | 1011.7 |
| 20260502024559 | 62 | 59 | 4.0 | 12.0 | 0.01 | 0.64 | 0.64 | 90 | 1011.8 |
| 20260502024050 | 62 | 53 | 5.0 | 12.0 | 0.01 | 0.64 | 0.64 | 90 | 1011.7 |
| 20260502023548 | 62 | 32 | 6.0 | 12.0 | 0.04 | 0.64 | 0.64 | 90 | 1011.6 |
| 20260502023056 | 62 | 28 | 4.0 | 12.0 | 0.05 | 0.64 | 0.64 | 90 | 1011.6 |
| 20260502022548 | 62 | 39 | 6.0 | 12.0 | 0.05 | 0.64 | 0.64 | 90 | 1011.7 |
| 20260502022047 | 62 | 50 | 6.0 | 12.0 | 0.05 | 0.64 | 0.64 | 90 | 1011.5 |
| 20260502021551 | 62 | 62 | 6.0 | 12.0 | 0.05 | 0.64 | 0.64 | 90 | 1011.6 |
| 20260502021047 | 62 | 46 | 4.0 | 13.0 | 0.05 | 0.64 | 0.64 | 90 | 1011.7 |
| 20260502020548 | 62 | 47 | 5.0 | 13.0 | 0.05 | 0.64 | 0.64 | 90 | 1011.5 |
| 20260502020057 | 62 | 71 | 6.0 | 13.0 | 0.05 | 0.64 | 0.64 | 89 | 1011.4 |
| 20260502015548 | 62 | 32 | 5.0 | 13.0 | 0.05 | 0.64 | 0.64 | 89 | 1011.5 |
| 20260502015048 | 62 | 35 | 5.0 | 11.0 | 0.05 | 0.64 | 0.64 | 89 | 1011.5 |
| 20260502014554 | 62 | 44 | 3.0 | 10.0 | 0.04 | 0.63 | 0.63 | 89 | 1011.4 |
| 20260502014047 | 62 | 56 | 5.0 | 12.0 | 0.03 | 0.62 | 0.62 | 89 | 1011.5 |
| 20260502013548 | 62 | 28 | 5.0 | 12.0 | 0.00 | 0.58 | 0.58 | 89 | 1011.5 |
| 20260502013054 | 62 | 50 | 4.0 | 12.0 | 0.00 | 0.58 | 0.58 | 89 | 1011.5 |
| 20260502012547 | 62 | 60 | 4.0 | 10.0 | 0.00 | 0.58 | 0.58 | 89 | 1011.6 |
| 20260502012048 | 62 | 29 | 6.0 | 12.0 | 0.00 | 0.58 | 0.58 | 89 | 1011.5 |
| 20260502011553 | 62 | 36 | 6.0 | 13.0 | 0.00 | 0.58 | 0.58 | 89 | 1011.5 |
| 20260502011047 | 62 | 53 | 6.0 | 13.0 | 0.00 | 0.58 | 0.58 | 89 | 1011.5 |
| 20260502010549 | 62 | 81 | 7.0 | 12.0 | 0.00 | 0.58 | 0.58 | 89 | 1011.4 |
| 20260502010049 | 62 | 80 | 6.0 | 12.0 | 0.00 | 0.58 | 0.58 | 89 | 1011.3 |
| 20260502005547 | 62 | 78 | 3.0 | 11.0 | 0.00 | 0.58 | 0.58 | 89 | 1011.3 |
| 20260502005048 | 62 | 63 | 5.0 | 11.0 | 0.00 | 0.58 | 0.58 | 89 | 1011.5 |
| 20260502004549 | 62 | 60 | 5.0 | 13.0 | 0.00 | 0.58 | 0.58 | 89 | 1011.3 |
| 20260502004050 | 62 | 51 | 5.0 | 13.0 | 0.00 | 0.58 | 0.58 | 89 | 1011.4 |
| 20260502003547 | 62 | 40 | 6.0 | 13.0 | 0.00 | 0.58 | 0.58 | 89 | 1011.3 |
| 20260502003050 | 62 | 53 | 5.0 | 10.0 | 0.00 | 0.58 | 0.58 | 89 | 1011.1 |
| 20260502002552 | 62 | 53 | 5.0 | 11.0 | 0.00 | 0.58 | 0.58 | 89 | 1011.1 |
| 20260502002048 | 62 | 43 | 6.0 | 12.0 | 0.01 | 0.58 | 0.58 | 89 | 1010.9 |
| 20260502001556 | 62 | 49 | 6.0 | 12.0 | 0.01 | 0.58 | 0.58 | 89 | 1010.8 |
| 20260502001048 | 62 | 68 | 5.0 | 12.0 | 0.01 | 0.58 | 0.58 | 89 | 1010.9 |
| 20260502000547 | 62 | 42 | 6.0 | 13.0 | 0.02 | 0.58 | 0.58 | 89 | 1011.0 |
| 20260502000057 | 62 | 54 | 4.0 | 13.0 | 0.06 | 0.58 | 0.58 | 89 | 1010.7 |
| 20260501235547 | 62 | 39 | 8.0 | 14.0 | 0.10 | 0.58 | 0.58 | 89 | 1010.7 |
| 20260501235052 | 62 | 46 | 6.0 | 14.0 | 0.12 | 0.58 | 0.58 | 88 | 1010.7 |
| 20260501234549 | 62 | 57 | 7.0 | 14.0 | 0.13 | 0.58 | 0.58 | 88 | 1010.8 |
| 20260501234048 | 62 | 68 | 8.0 | 14.0 | 0.13 | 0.58 | 0.58 | 88 | 1010.7 |
| 20260501233547 | 62 | 36 | 4.0 | 13.0 | 0.13 | 0.58 | 0.58 | 88 | 1010.8 |
| 20260501233103 | 62 | 51 | 6.0 | 17.0 | 0.13 | 0.58 | 0.58 | 88 | 1010.5 |
| 20260501232547 | 62 | 69 | 8.0 | 17.0 | 0.13 | 0.58 | 0.58 | 88 | 1010.5 |
| 20260501232043 | 62 | 57 | 8.0 | 15.0 | 0.12 | 0.58 | 0.58 | 88 | 1010.5 |
| 20260501231559 | 63 | 17 | 8.0 | 15.0 | 0.12 | 0.58 | 0.58 | 88 | 1010.8 |
| 20260501231043 | 63 | 360 | 9.0 | 15.0 | 0.12 | 0.58 | 0.58 | 88 | 1011.0 |
| 20260501230545 | 63 | 24 | 8.0 | 14.0 | 0.11 | 0.57 | 0.57 | 87 | 1011.1 |
| 20260501225544 | 63 | 12 | 7.0 | 14.0 | 0.03 | 0.49 | 0.49 | 87 | 1011.2 |
| 20260501225045 | 63 | 28 | 6.0 | 16.0 | 0.02 | 0.47 | 0.47 | 87 | 1011.3 |
| 20260501224554 | 63 | 30 | 7.0 | 16.0 | 0.01 | 0.46 | 0.46 | 87 | 1011.0 |
| 20260501224048 | 63 | 46 | 9.0 | 16.0 | 0.03 | 0.46 | 0.46 | 87 | 1010.8 |
| 20260501223544 | 63 | 42 | 8.0 | 15.0 | 0.04 | 0.46 | 0.46 | 87 | 1010.9 |
| 20260501223101 | 63 | 40 | 8.0 | 14.0 | 0.05 | 0.46 | 0.46 | 87 | 1011.0 |
| 20260501222548 | 64 | 26 | 5.0 | 12.0 | 0.07 | 0.46 | 0.46 | 87 | 1010.7 |
| 20260501222044 | 64 | 56 | 5.0 | 15.0 | 0.09 | 0.46 | 0.46 | 87 | 1010.9 |
| 20260501221558 | 64 | 5 | 6.0 | 15.0 | 0.10 | 0.46 | 0.46 | 87 | 1011.1 |